Home > Weather > Salt Lake City > Past weeks

Flag for U.S.A. Weather for the Past 2 Weeks in Salt Lake City, Utah, U.S.A.

Now
31 °F

Ice fog.


Feels Like: 25 °F
Forecast: 23 / 41 °F
Wind: 6 mph from North

Location: Salt Lake City International Airport

Current Time: Feb 10, 2016 at 4:19:02 PM

Latest Report: Feb 10, 2016 at 3:54 PM


Visibility: 2 mi

Pressure: 30.50 "Hg (25.87 "Hg at 1312m altitude)

Humidity: 89%

Dew point: 28 °F

Location of Salt Lake CityLocation

Historic Weather in Salt Lake City — Graph

°F

Salt Lake City Temperature Yesterday

Maximum temperature yesterday: 40 °F (at 3:00 PM)
Minimum temperature yesterday: 25 °F (at 6:00 AM)
Average temperature yesterday: 31 °F

High & Low Weather Summary for the Past Weeks

 TemperatureHumidityPressure
High47 °F (Jan 29, 11:53 PM)100% (Feb 10, 5:54 AM)30.78 "Hg (Feb 10, 5:54 AM)
Low14 °F (Feb 2, 4:53 AM)45% (Feb 6, 1:53 PM)29.57 "Hg (Feb 1, 1:03 AM)
Average29 °F77%30.34 "Hg
* Reported Jan 26 1:53 PM — Feb 10 1:54 PM, Salt Lake City, Weather by CustomWeather, © 2016

Note: Actual official high and low records may vary slightly from our data, if they occured in-between our weather recording intervals... More about our weather records

Advertising

Salt Lake City Weather History for the Previous 24 Hours

 ConditionsComfort  
Time TempWeatherWind HumidityBarometerVisibility
1:54 PM
Wed, Feb 10
30 °FIce fog.5 mph89%30.51 "Hg1 mi
12:54 PM30 °FIce fog.10 mph92%30.57 "Hg1 mi
11:54 AM30 °FIce fog.8 mph92%30.55 "Hg1 mi
10:54 AM30 °FIce fog.3 mph92%30.57 "Hg1 mi
9:54 AM29 °FIce fog.5 mph93%30.55 "Hg1 mi
8:54 AM29 °FIce fog.No wind96%30.54 "Hg1 mi
7:54 AM28 °FLight snow. Ice fog.6 mph96%30.52 "Hg0 mi
6:54 AM28 °FIce fog.No wind96%30.53 "Hg0 mi
5:54 AM28 °FIce fog.No wind100%30.51 "Hg0 mi
4:54 AM29 °FIce fog.No wind93%30.49 "Hg1 mi
3:54 AM27 °FIce fog.8 mph92%30.50 "Hg1 mi
2:54 AM27 °FIce fog.No wind92%30.50 "Hg0 mi
1:54 AM28 °FIce fog.7 mph93%30.52 "Hg0 mi
12:54 AM27 °FIce fog.5 mph92%30.52 "Hg2 mi
11:54 PM
Tue, Feb 9
28 °FIce fog.5 mph93%30.53 "Hg4 mi
10:54 PM28 °FIce fog.5 mph93%30.53 "Hg2 mi
9:54 PM29 °FIce fog.3 mph89%30.53 "Hg3 mi
8:54 PM31 °FClear.No wind82%30.53 "Hg3 mi
7:54 PM32 °FClear.6 mph82%30.56 "Hg3 mi
6:54 PM34 °FClear.No wind79%30.56 "Hg3 mi
5:54 PM35 °FSunny.6 mph75%30.56 "Hg3 mi
4:54 PM38 °FSunny.7 mph73%30.55 "Hg3 mi
4:00 PM39 °FSunny.5 mph67%30.55 "Hg3 mi
Weather by CustomWeather, © 2016

See weather overviewHow to use our weather pages